Regional Weather Roundup
Issued by NWS

Home | Current Version | Previous Version | Graphics & Text | Print | Product List | Glossary On
Versions: 1 2 3 4 5 6 7 8 9 10 11 12 13 14 15 16 17 18 19 20 21 22 23 24 25 26 27 28 29 30 31 32 33 34 35 36 37 38 39 40 41 42 43 44 45 46 47 48 49 50
000
ASUS43 KBIS 290120
RWRND

NORTH DAKOTA REGIONAL WEATHER ROUNDUP
NATIONAL WEATHER SERVICE BISMARCK ND
800 PM CDT THU AUG 28 2014

NOTE: "FAIR" INDICATES FEW OR NO CLOUDS BELOW 12,000 FEET WITH NO
SIGNIFICANT WEATHER AND/OR OBSTRUCTIONS TO VISIBILITY.


NDZ001>003-009>011-017-290200-
NORTHWEST NORTH DAKOTA

CITY           SKY/WX    TMP DP  RH WIND       PRES   REMARKS
WILLISTON      PTCLDY    87  49  26 W8        29.76S
MINOT          PTCLDY    79  60  52 SE8       29.77S
MINOT AFB      CLEAR     78  63  58 S8        29.75F
$$

NDZ018>021-031>035-040>046-290200-
SOUTHWEST NORTH DAKOTA

CITY           SKY/WX    TMP DP  RH WIND       PRES   REMARKS
BISMARCK       CLOUDY    71  66  84 SE8       29.85S
DICKINSON      PTCLDY    80  61  52 CALM      29.83S
GARRISON         N/A     76  66  71 SE6       29.81S
HETTINGER ARPT PTCLDY    76  58  53 SE9       29.87F
$$

NDZ004>008-012>016-024-026-027-054-290200-
NORTHEAST NORTH DAKOTA

CITY           SKY/WX    TMP DP  RH WIND       PRES   REMARKS
GRAND FORKS    CLOUDY    71  65  81 S14       29.85S
GRND FRKS AFB  CLOUDY    70  69  97 S12       29.86S
DEVILS LAKE    CLOUDY    72  63  73 S14       29.82S
$$

NDZ022-023-025-028>030-036>039-047>053-290200-
SOUTHEAST NORTH DAKOTA

CITY           SKY/WX    TMP DP  RH WIND       PRES   REMARKS
FARGO          CLOUDY    67  64  90 SE10      29.87F
JAMESTOWN      CLOUDY    68  65  90 SE8       29.86S
$$




USA.gov is the U.S. government's official web portal to all federal, state and local government web resources and services.